Weather History for Sitka, AK

Change the Weather History Date:

Saturday, November 2, 2013

  Actual Average Record
Temperature  
Mean Temperature 42 °F -  
Max Temperature 46 °F 48 °F 65 °F (1970)
Min Temperature 37 °F 39 °F 30 °F (1955)
Degree Days  
Heating Degree Days 24    
Moisture  
Dew Point 36 °F    
Average Humidity 83    
Maximum Humidity 93    
Minimum Humidity 66    
Precipitation  
Precipitation 0.00 in - - ()
Sea Level Pressure  
Sea Level Pressure 30.08 in    
Wind  
Wind Speed 3 mph (East)    
Max Wind Speed 7 mph    
Max Gust Speed -    
Visibility 10 miles    
Events      
Averages and records for this station are not official NWS values.
T = Trace of Precipitation, MM = Missing Value Source: NWS Daily Summary

Daily Weather History Graph

Daily Weather History Graph

Search for Another Location

Airport:

Trip Planner

Search our weather history database for the weather conditions in past years. The results will help you decide how hot, cold, wet, or windy it might be!

Date:

Astronomy

Nov. 02, 2013 Rise Set
Actual Time 8:15 AM AKDT 5:13 PM AKDT
Civil Twilight 7:34 AM AKDT 5:55 PM AKDT
Nautical Twilight 6:48 AM AKDT 6:40 PM AKDT
Astronomical Twilight 6:04 AM AKDT 7:24 PM AKDT
Moon 7:14 AM AKDT (11/2) 4:53 PM AKDT (11/2)
Length of Visible Light 10h 20m
Length of Day
8h 58m
Waning Crescent, 1% of the Moon is Illuminated
Nov 2
Waning Crescent
Nov 3
New
Nov 9
First Quarter
Nov 17
Full
Nov 25
Last Quarter

Hourly Weather History & Observations

Time (AKDT) Temp. Windchill Dew Point Humidity Pressure Visibility Wind Dir Wind Speed Gust Speed Precip Events Conditions
12:06 AM 41.0 °F - 37.9 °F 89% 30.07 in 10.0 mi Calm Calm - N/A   Overcast
12:53 AM 42.1 °F 40.2 °F 37.9 °F 85% 30.08 in 10.0 mi East 3.5 mph - 0.00 in   Overcast
1:53 AM 41.0 °F - 37.0 °F 86% 30.08 in 10.0 mi Calm Calm - N/A   Overcast
2:53 AM 39.9 °F 37.8 °F 36.0 °F 86% 30.08 in 10.0 mi ENE 3.5 mph - N/A   Overcast
3:53 AM 39.9 °F - 36.0 °F 86% 30.07 in 10.0 mi Calm Calm - N/A   Overcast
4:04 AM 39.0 °F - 36.0 °F 89% 30.07 in 10.0 mi Calm Calm - N/A   Overcast
4:14 AM 39.0 °F 35.7 °F 36.0 °F 89% 30.07 in 10.0 mi East 4.6 mph - N/A   Overcast
4:53 AM 37.9 °F 34.4 °F 35.1 °F 89% 30.07 in 10.0 mi East 4.6 mph - N/A   Mostly Cloudy
5:53 AM 39.9 °F 37.8 °F 37.0 °F 89% 30.06 in 10.0 mi East 3.5 mph - N/A   Overcast
6:53 AM 37.9 °F 35.5 °F 35.1 °F 89% 30.06 in 10.0 mi East 3.5 mph - N/A   Mostly Cloudy
7:53 AM 37.0 °F 34.5 °F 35.1 °F 93% 30.07 in 10.0 mi ESE 3.5 mph - N/A   Partly Cloudy
8:53 AM 37.0 °F - 35.1 °F 93% 30.09 in 10.0 mi Calm Calm - N/A   Mostly Cloudy
9:00 AM 37.9 °F 35.5 °F 35.1 °F 89% 30.08 in 10.0 mi East 3.5 mph - N/A   Overcast
9:53 AM 39.0 °F 34.0 °F 35.1 °F 86% 30.08 in 10.0 mi East 6.9 mph - N/A   Scattered Clouds
10:53 AM 42.1 °F - 36.0 °F 79% 30.09 in 10.0 mi Calm Calm - N/A   Clear
11:53 AM 43.0 °F 40.3 °F 36.0 °F 76% 30.09 in 10.0 mi WNW 4.6 mph - N/A   Clear
12:53 PM 44.1 °F 41.5 °F 37.0 °F 76% 30.09 in 10.0 mi West 4.6 mph - N/A   Clear
1:53 PM 46.0 °F - 37.0 °F 71% 30.09 in 10.0 mi Calm Calm - N/A   Clear
2:53 PM 46.9 °F - 36.0 °F 66% 30.09 in 10.0 mi WNW 5.8 mph - N/A   Scattered Clouds
3:53 PM 46.9 °F - 36.0 °F 66% 30.09 in 10.0 mi NW 6.9 mph - N/A   Scattered Clouds
4:53 PM 44.1 °F 41.5 °F 36.0 °F 73% 30.09 in 10.0 mi East 4.6 mph - N/A   Clear
5:53 PM 41.0 °F 38.0 °F 36.0 °F 82% 30.08 in 10.0 mi East 4.6 mph - N/A   Scattered Clouds
6:53 PM 39.0 °F 35.7 °F 35.1 °F 86% 30.07 in 10.0 mi East 4.6 mph - N/A   Scattered Clouds
7:53 PM 39.0 °F 36.8 °F 34.0 °F 82% 30.07 in 10.0 mi ESE 3.5 mph - N/A   Clear
8:53 PM 37.9 °F 34.4 °F 33.1 °F 83% 30.07 in 10.0 mi East 4.6 mph - N/A   Clear
9:53 PM 37.0 °F 34.5 °F 33.1 °F 86% 30.08 in 10.0 mi East 3.5 mph - N/A   Clear
10:53 PM 39.0 °F 35.7 °F 35.1 °F 86% 30.07 in 10.0 mi ESE 4.6 mph - N/A   Clear
11:53 PM 39.0 °F - 34.0 °F 82% 30.06 in 10.0 mi Calm Calm - N/A   Clear